Regional Weather Roundup
Issued by NWS Boston, MA

Home | Current Version | Previous Version | Text Only | Print | Product List | Glossary On
Versions: 1 2 3 4 5 6 7 8 9 10 11 12 13 14 15 16 17 18 19 20 21 22 23 24 25 26 27 28 29 30 31 32 33 34 35 36 37 38 39 40 41 42 43 44 45 46 47 48 49 50
429
ASUS41 KBOX 080910
RWRBOX

REGIONAL WEATHER ROUNDUP
NATIONAL WEATHER SERVICE TAUNTON MA
400 AM EST MON FEB 08 2016

NOTE:  "FAIR" INDICATES FEW OR NO CLOUDS BELOW 12,000 FEET WITH NO
SIGNIFICANT WEATHER AND/OR OBSTRUCTIONS TO VISIBILITY.  THE FOLLOWING
OBSERVATION LOCATIONS DO NOT REPORT PRESENT WEATHER...PROVINCETOWN...
SMITHFIELD...BLOCK ISLAND...KEENE...AND OXFORD.

MAZALL-081000-
EASTERN MASSACHUSETTS

CITY           SKY/WX    TMP DP  RH WIND       PRES   REMARKS
BOSTON         CLOUDY    34  26  72 NE29G45   29.90F WCI  20
BEVERLY        CLOUDY    32  22  66 NE23G37   29.91F WCI  19
LAWRENCE       CLOUDY    29  19  66 NE24G41   29.95F WCI  15
BEDFORD        CLOUDY   N/A N/A N/A NE22G37     N/A
BLUE HILL        N/A     31  25  78 NE20G39   29.83F WCI  19
NORWOOD        FLURRIES  35  26  69 NE20G32   29.88F WCI  24
MARSHFIELD     CLOUDY    37  30  75 NE25G43   29.89F WCI  26
PLYMOUTH       CLOUDY    36  27  69 NE24G44   29.83F WCI  24
TAUNTON        CLOUDY    37  26  64 NE21G32   29.81F WCI  26
NEW BEDFORD      N/A     36  27  69 MISG      29.79F
$$

MAZALL-081000-
CAPE COD AND THE ISLANDS

CITY           SKY/WX    TMP DP  RH WIND       PRES   REMARKS
FALMOUTH       CLOUDY    36  28  75 NE29G41   29.77F WCI  23
HYANNIS        CLOUDY    36  27  69 NE24G47   29.75F WCI  24
CHATHAM        CLOUDY    36  27  69 NE26G41   29.79F WCI  24
PROVINCETOWN   CLOUDY    36  27  69 NE31G41   29.85F WCI  23
NANTUCKET      LGT SNOW  35  32  88 NE36G53   29.68F FOG     WCI  21
MARTHAS VNYRD  CLOUDY    37  28  70 NE30G51   29.73F WCI  24
$$

MAZALL-081000-
CENTRAL AND WESTERN MASSACHUSETTS

CITY           SKY/WX    TMP DP  RH WIND       PRES   REMARKS
WORCESTER      CLOUDY    30  23  75 NE17G31   29.82F WCI  18
FITCHBURG      CLOUDY    30  20  66 NE14G23   29.91F WCI  19
ORANGE         CLOUDY    30  21  69 NE12G29   29.88F WCI  20
SPRINGFIELD    CLOUDY    34  26  72 NE18      29.84F WCI  23
WESTFIELD      CLOUDY    34  26  72 NE13G21   29.85F WCI  25
NORTH ADAMS    CLOUDY    33  23  66 VRB6G16   29.84F WCI  28
PITTSFIELD     CLOUDY    31  24  75 NE15G31   29.79F WCI  20
$$

RIZALL-081000-
RHODE ISLAND

CITY           SKY/WX    TMP DP  RH WIND       PRES   REMARKS
PROVIDENCE       N/A     36  27  69 NE35G46   29.81F WCI  22
NEWPORT        CLOUDY    37  27  67 NE26G43   29.77F WCI  25
BLOCK ISLAND   CLOUDY    37  30  75 NE33G41   29.71F WCI  24
SMITHFIELD     CLOUDY    34  25  69 NE20G32   29.80F WCI  22
WESTERLY       CLOUDY    37  28  70 NE14G28   29.75F WCI  28
$$

CTZALL-081000-
CONNECTICUT

CITY           SKY/WX    TMP DP  RH WIND       PRES   REMARKS
BRADLEY INTL   CLOUDY    36  27  69 NE18G26   29.82F WCI  26
HARTFORD       CLOUDY    37  27  67 NE15G29   29.81F WCI  28
BRIDGEPORT     CLOUDY    37  28  70 NE18G25   29.76F WCI  27
DANBURY        CLOUDY    35  25  66 NE12G25   29.77F WCI  27
GROTON         CLOUDY    37  31  78 NE17G32   29.74F WCI  27
NEW HAVEN      CLOUDY    36  28  73 N15G22    29.76F WCI  27
CHESTER        CLOUDY    36  30  80 NE16G24   29.75F WCI  26
MERIDEN        CLOUDY    36  27  69 N6G20     29.79F WCI  31
WILLIMANTIC    CLOUDY    37  27  67 NE21G35   29.79F WCI  26
OXFORD         CLOUDY    34  19  55 NE10G25   29.76F WCI  26
$$

MEZ002-015-021-024-NHZ003-005-008-011-012-014-VTZ005-008-081000-
NORTHERN NEW ENGLAND

CITY           SKY/WX    TMP DP  RH WIND       PRES   REMARKS
PORTLAND ME    MOCLDY    20   1  43 NE18G25   30.06F WCI   5
BANGOR ME      CLOUDY    12  -3  51 NE14      30.16F WCI  -3
CONCORD NH     CLOUDY    25   6  44 NE8       29.98F WCI  16
MANCHESTER NH  CLOUDY    26  11  52 NE15G23   29.95F WCI  14
NASHUA NH      CLOUDY    27  16  63 NE10G18   29.96F WCI  17
PORTSMOUTH NH  PTCLDY    25   9  51 NE18G24   29.98F WCI  11
JAFFREY NH     CLOUDY    25  16  68 VRB3      29.88F
KEENE NH       PTCLDY    28  14  54 NE13G21   29.92F WCI  18
BURLINGTON VT  FAIR      18  10  71 CALM      29.98F
MT. WASHINGTON PTCLDY    18   5  57 E14         N/A  WCI   4
$$

NYZ052-076-081000-
EASTERN NEW YORK

CITY           SKY/WX    TMP DP  RH WIND       PRES   REMARKS
ALBANY         CLOUDY    27  19  72 N5        29.88F WCI  22
NEW YORK CITY  CLOUDY    38  28  67 NE14G24   29.74F WCI  30
$$

ANZALL-081000-
MARINE OBSERVATIONS

STATION/POSITION TIME  TEMP    WIND        PRES    VSBY  WAVE
                       AIR SEA DIR/SP/G                  HT/PER
                 (UTC) (F)     (DEG/KT/KT) (MB)    (MI)  (FT/S)
BOSTON BUOY      0850   36 42   60/ 31/ 39 1011.3F        12/ 8
BUZZARDS BAY     0900           50/ 39/ 44 1006.7F
NANTUCKET SOUND  0850   39 42   50/ 37/ 45 1005.6F         7/ 5
MASS BAY-STELLWA 0804   35 43   40/ 29/ 35   N/A    1 7/8 10/ 7
ISLE OF SHOALS   0900   29      40/ 41/ 45 1012.4F
S OF BLOCK IS    NOT AVBL
$$

......................KEY.........................
  SKY/WX - SKY CONDITION/PRESENT WEATHER
  TMP    - TEMPERATURE IN FAHRENHEIT
  DWPT   - DEWPOINT IN FAHRENHEIT
  RH     - RELATIVE HUMIDITY IN PERCENT
  WIND   - DIRECTION AND SPEED IN MPH
  PRES   - MEAN SEA LEVEL PRESSURE IN INCHES OF HG
  WCI    - WIND CHILL INDEX
  VSB    - VISIBILITY IN MILES
  HX     - HEAT INDEX
  TC     - TEMPERATURE IN CELSIUS
  VRB    - VARIABLE WIND DIRECTION
  N/A    - NOT AVAILABLE




USA.gov is the U.S. government's official web portal to all federal, state and local government web resources and services.